Regional Weather Roundup
Issued by NWS

Home | Current Version | Previous Version | Graphics & Text | Print | Product List | Glossary Off
Versions: 1 2 3 4 5 6 7 8 9 10 11 12 13 14 15 16 17 18 19 20 21 22 23 24 25 26 27 28 29 30 31 32 33 34 35 36 37 38 39 40 41 42 43 44 45 46 47 48 49 50

000
ASUS43 KDTX 010201
RWRMI
MICHIGAN HOURLY REGIONAL WEATHER ROUNDUP
NATIONAL WEATHER SERVICE DETROIT/PONTIAC MI
1000 PM EDT TUE JUN 30 2015

NOTE: "FAIR" INDICATES FEW OR NO CLOUDS BELOW 12,000 FEET WITH NO
SIGNIFICANT WEATHER AND/OR OBSTRUCTION TO VISIBILITY.

MIZ047>049-052>055-059>063-066>070-074>076-081>083-010300-
SOUTHEAST LOWER MICHIGAN

CITY           SKY/WX    TMP DP  RH WIND       PRES   REMARKS
ADRIAN         PTCLDY    66  60  81 NW3       29.80R
ALMA           LGT RAIN  63  63  97 NW3       29.82R
ANN ARBOR      CLOUDY    66  63  90 NW6       29.78R
BAD AXE        CLOUDY    61  56  83 CALM      29.81R
CARO           CLOUDY    64  60  85 NE5       29.79R
DETROIT CITY   CLOUDY    67  63  87 N6        29.77R
DETROIT        CLOUDY    67  64  90 SW3       29.78R
FLINT          MOCLDY    65  62  90 W3        29.79R FOG
GROSSE ILE     CLOUDY    66  63  88 NW3       29.76R
HILLSDALE      CLOUDY    66  62  87 NW12G23   29.82R
HOWELL         PTCLDY    63  61  93 NW3       29.79R

CITY           SKY/WX    TMP DP  RH WIND       PRES   REMARKS
JACKSON        CLOUDY    65  60  84 W12       29.81R
LAMBERTVILLE   PTCLDY    66  62  87 CALM      29.79R FOG
LANSING        MOCLDY    65  63  93 CALM      29.81R
LAPEER         LGT RAIN  64  62  93 CALM      29.79R
MASON          CLOUDY    63  61  94 W7        29.80R FOG
MONROE         MOCLDY    63  62  96 W5        29.77R
MT. CLEMENS    CLOUDY    63  62  95 CALM      29.75R FOG
PONTIAC        RAIN      65  62  90 N9        29.77R FOG
PORT HOPE        N/A     61  56  83 CALM      29.79R
PORT HURON     CLOUDY    61  59  94 N5        29.78S
TRI CITIES     CLOUDY    65  61  87 N6        29.81R
MIDLAND        DRIZZLE   63  62  95 CALM      29.80R
TROY           CLOUDY    68  63  83 E3        29.79R
SAGINAW HB     CLOUDY    64  59  82 NW5       29.79R
$$
MIZ043>046-050>051-056>058-064>065-071>073-077>080-010300-
SOUTHWEST LOWER MICHIGAN

CITY           SKY/WX    TMP DP  RH WIND       PRES   REMARKS
BATTLE CREEK   CLEAR     64  59  83 W7        29.83S
BENTON HARBOR  CLEAR     60  57  89 CALM      29.87R
BIG RAPIDS     CLOUDY    61  56  83 W5        29.83R
COLDWATER      PTCLDY    63  58  83 W8        29.83S
FREMONT        CLOUDY    58  56  91 NW8       29.85S
HOLLAND        CLEAR     63  56  78 NW8       29.85R
GRAND RAPIDS   PTCLDY    65  60  84 NW10      29.83R
IONIA          CLOUDY    66  62  87 NW7       29.80S
KALAMAZOO      PTCLDY    63  57  81 NW10      29.84S
LUDINGTON      CLOUDY    56  52  86 N12       29.90R
MARSHALL       MOCLDY    64  59  83 W7        29.81S
MOUNT PLEASANT CLOUDY    62  60  94 CALM      29.81R FOG
MUSKEGON       CLEAR     62  53  72 N14       29.86R
SOUTH HAVEN    CLEAR     60  56  85 N8        29.85S
$$
MIZ016>042-010300-
NORTHERN LOWER MICHIGAN

CITY           SKY/WX    TMP DP  RH WIND       PRES   REMARKS
ALPENA         CLOUDY    63  60  90 N5        29.82S
BEAVER ISLAND  CLOUDY    52  48  86 NW9       29.87S
BELLAIRE       CLOUDY    56  51  81 CALM      29.87R
CADILLAC       CLOUDY    54  52  95 NW7       29.86R FOG
CHARLEVOIX     CLOUDY    55  51  83 N9        29.89S
FRANKFORT      CLOUDY    54  47  77 N9        29.89S HAZE
GAYLORD        FOG       56  56 100 VRB6      29.85R VSB 1/4
GRAYLING       CLOUDY    58  56  96 W8        29.85R FOG
HARBOR SPRINGS CLOUDY    56  54  92 CALM      29.85R
HOUGHTON LAKE  CLOUDY    60  58  92 NW12      29.83S
MANISTEE       CLOUDY    54  46  76 N8        29.90R
OSCODA         CLOUDY    64  58  82 N8        29.80R
PELLSTON       CLOUDY    57  56  96 W8        29.85R
ROGERS CITY    DRIZZLE   62  61  96 CALM      29.83S
TRAVERSE CITY  CLOUDY    54  49  83 N12       29.87R
$$
MIZ007>008-015-010300-
EASTERN UPPER MICHIGAN

CITY           SKY/WX    TMP DP  RH WIND       PRES   REMARKS
KINROSS        CLOUDY    52  52 100 NW7       29.85R
MACKINAC ISLAN CLOUDY    57  57 100 N7        29.84R
NEWBERRY       CLOUDY    46  45  97 NW6       29.87F
S. S. MARIE    CLOUDY    54  52  93 W3        29.84R
MUNISING         N/A     47  44  90 NW12      29.93R
$$
MIZ004>006-011>014-085-010300-
CENTRAL UPPER MICHIGAN

CITY           SKY/WX    TMP DP  RH WIND       PRES   REMARKS
MANISTIQUE     CLOUDY    47  44  89 N10G22    29.88S
ESCANABA       CLOUDY    52  43  71 N8        29.92R
MENOMINEE      MOCLDY    55  45  67 N8        29.92F
SAWYER-GWINN   CLOUDY    46  43  87 N13       29.94R
$$
MIZ001>003-009>011-084-010300-
WESTERN UPPER MICHIGAN

CITY           SKY/WX    TMP DP  RH WIND       PRES   REMARKS
IRON MOUNTAIN  CLEAR     51  43  74 N7        29.94S
HOUGHTON       CLEAR     48  43  82 NE3       29.98R
COPPER HARBOR    N/A     47  42  83 N12       29.98R
IRONWOOD       CLEAR     52  46  82 CALM      29.96R
$$

ABBREVIATIONS USED IN REMARKS
   TC - TEMPERATURE IN CELSIUS
  WCI - WIND CHILL INDEX
   HX - HEAT INDEX
  VSB - VISIBILITY




USA.gov is the U.S. government's official web portal to all federal, state and local government web resources and services.